Фирсановка

Россия / Московская область     55°57′29″N   37°15′15″E
темп.,
°C
ветер,
м/с
пор.,
м/с
влажн.,
%
обл.,
%
осадки,
мм/ч
давл.,
гПа
погр.,
м
11 мая, вт
вт1100:00+5св35785 0.0 102876
03:00+4св35805 0.0 102978
06:00+5св388020 0.0 1028186
09:00+12св57565 0.0 1028584
12:00+16всв57410 0.0 1027894
15:00+18всв56460 0.0 1026945
18:00+18всв46590 0.0 1025581
21:00+12всв38840 0.0 1026143
12 мая, ср
ср1200:00+11в389410 0.0 1026143
03:00+11вюв23965 0.0 102659
06:00+11в249254 0.0 1027136
09:00+15в356822 0.0 1026504
12:00+20всв475793 0.0 10231355
15:00+16в3990100 3.3 1022432
18:00+16вюв7138095 2.4 1019870
21:00+14вюв71392100 2.8 1019842
13 мая, чт
чт1300:00+12ююв499341 0.3 1020594
03:00+8юв369822 0.3 1021181
06:00+8вюв489560 0.0 1021299
09:00+13вюв587241 0.0 1020549
12:00+18вюв465598 0.0 10181404
15:00+14вюв5883100 1.1 1015588
18:00+15юв357941 0.1 1015783
21:00+12ююв239577 3.9 101588
14 мая, пт
пт1400:00+9ю379896 0.3 1016197
03:00+8ю24964 0.3 101764
06:00+9ю249260 0.0 1018130
09:00+13юв3575100 0.0 1018468
12:00+17юв466155 0.0 1017856
15:00+20юв4664100 0.4 10151202
18:00+15в379487 5.7 1014265
21:00+14в4109583 5.7 1012238
15 мая, сб
сб1500:00+13вюв4997100 0.5 1012196
03:00+13юв3697100 0.6 1011115
06:00+15ююв51390100 0.3 1011398
09:00+18ююв6108334 0.9 1010647
12:00+22ю6961100 0.0 10091334
15:00+21ю5768100 0.3 10081087
18:00+18ю4984100 6.4 1008420
21:00+15ююз389136 7.9 1008143